Skip Page Navigation
NASA JPL Caltech
NASA Logo - Jet Propulsion Laboratory + View the NASA Portal
+ Center for Near-Earth Object Studies
JPL Home Earth Solar System Stars & Galaxies Technology
JPL Solar System Dynamics
BODIES ORBITS EPHEMERIDES TOOLS PHYSICAL DATA DISCOVERY FAQ SITE MAP
JPL Small-Body Database Browser
Search: [ help ]  
277163 (2005 NN47)
Classification: Main-belt Asteroid          SPK-ID: 2277163
Ephemeris | Orbit Diagram | Orbital Elements | Mission Design | Physical Parameters | Discovery Circumstances | Close-Approach Data ]

[ show orbit diagram ]
Orbital Elements at Epoch 2459000.5 (2020-May-31.0) TDB
Reference: JPL 8 (heliocentric ecliptic J2000)
 Element Value Uncertainty (1-sigma)   Units 
e .1921346001843692 1.3244e-07  
a 2.76445473176288 2.6953e-08 au
q 2.233307327147831 3.5945e-07 au
i 5.581768483312326 7.005e-06 deg
node 107.6428145390021 8.8492e-05 deg
peri 195.0967176127186 9.255e-05 deg
M 83.77450526874547 2.0038e-05 deg
tp 2458609.819241736990
(2019-May-06.31924174)
9.3965e-05 TDB
period 1678.852922180793
4.60
2.4553e-05
6.722e-08
d
yr
n .2144321251991318 3.136e-09 deg/d
Q 3.295602136377929 3.2132e-08 au
  Orbit Determination Parameters
   # obs. used (total)      81  
   data-arc span      5251 days (14.38 yr)  
   first obs. used      2005-06-13  
   last obs. used      2019-10-29  
   planetary ephem.      DE431  
   SB-pert. ephem.      SB431-N16  
   condition code      0  
   norm. resid. RMS      .71135  
   source      ORB  
   producer      Otto Matic  
   solution date      2019-Nov-08 05:22:16  

Additional Information
 Earth MOID = 1.21845 au 
 Jupiter MOID = 1.94381 au 
 T_jup = 3.306 
[ hide covariance matrix ]
Orbital Elements at Epoch 2457748.5 (2016-Dec-26.0) TDB
Reference: JPL 8 (heliocentric ecliptic J2000)
 Element Value Uncertainty (1-sigma)   Units 
e .1933087923731921 1.3134e-07  
q 2.228983722726388 3.5644e-07 au
tp 2456932.839087412399
(2014-Oct-02.33908741)
9.9718e-05 TDB
node 107.6985255363159 8.8591e-05 deg
peri 195.3218898111907 9.2644e-05 deg
i 5.580305879942822 7.0039e-06 deg
  Orbit Determination Parameters
   # obs. used (total)      81  
   data-arc span      5251 days (14.38 yr)  
   first obs. used      2005-06-13  
   last obs. used      2019-10-29  
   planetary ephem.      DE431  
   SB-pert. ephem.      SB431-N16  
   condition code      0  
   norm. resid. RMS      .71135  
   source      ORB  
   producer      Otto Matic  
   solution date      2019-Nov-08 05:22:16  

Additional Information
 Jupiter MOID = 1.94381 au 
 T_jup = 3.306 
Orbit Covariance (6×6)
  e q tp node peri i
e 1.725115602044142E-14 -4.673786578319396E-14 -8.178361563356109E-13 2.857093921698316E-13 -1.655514269170029E-12 -2.436797003785673E-14
q -4.673786578319396E-14 1.270493097836366E-13 1.443871427935117E-12 -7.658113666733693E-13 4.348270201451236E-12 6.816370174696548E-14
tp -8.178361563356109E-13 1.443871427935117E-12 9.943753700134067E-9 -2.75425593597637E-11 2.554883569386827E-9 -1.745048211965788E-11
node 2.857093921698316E-13 -7.658113666733693E-13 -2.75425593597637E-11 7.848333265250153E-9 -7.83575442500267E-9 2.063835189407328E-10
peri -1.655514269170029E-12 4.348270201451236E-12 2.554883569386827E-9 -7.83575442500267E-9 8.582997920462998E-9 -2.08143493997824E-10
i -2.436797003785673E-14 6.816370174696548E-14 -1.745048211965788E-11 2.063835189407328E-10 -2.08143493997824E-10 4.905472088425417E-11

Ephemeris | Orbit Diagram | Orbital Elements | Mission Design | Physical Parameters | Discovery Circumstances | Close-Approach Data ]

Physical Parameter Table
Parameter Symbol Value Units Sigma Reference Notes
absolute magnitude H 17.5   n/a MPO494501  

277163 (2005 NN47)          Discovered 2005-Jul-07 by Spacewatch at Kitt Peak
Reference: 20110517/Numbers.arcLast Updated: 2011-05-20

[ show close-approach data ]
Ephemeris | Orbit Diagram | Orbital Elements | Mission Design | Physical Parameters | Discovery Circumstances | Close-Approach Data ]
ABOUT SSD CREDITS/AWARDS PRIVACY/COPYRIGHT GLOSSARY LINKS
FirstGov 2020-Aug-14 06:40 UT
(server date/time)  
NASA Home Page
Site Manager:   Ryan S. Park
Webmaster  Alan B. Chamberlin